SCP
-0 -0 -0 -0 -0 0 0 0 0 0 0 -0 -0 0 -0 -0 0 0 0 0 0 -0 -0 0 0 0 0 0 0 0 0 0 0 0 0 0 0 0 0 0 0 0 0
0 -0 -0 -0 -0 -0 -0 0 -0 0 -0 0 -0 0 0 -0 0 0 0 0 0 0 0 0 0 0 0 0 0 0 0 0 0 0 0 0 0 0 0 0 0 0 0
0 0 -0 -0 -0 -0 -0 -0 0 0 0 -0 -0 0 0 0 0 0 0 0 0 0 0 0 0 0 0 0 0 0 0 0 0 0 0 0 0 0 0 0 0 0 0
0 0 0 0 0 0 -0 -0 0 0 0 -0 -0 0 0 0 0 0 0 0 0 0 0 0 -0 0 0 0 0 0 0 0 0 0 0 0 0 0 0 0 0 0 0
0 0 0 0 0 0 0 -0 0 0 0 -0 -0 -0 -0 -0 -0 -0 -0 -0 0 0 0 0 0 0 0 0 0 0 0 0 0 0 0 0 0 0 0 0 0 0 0
0 0 0 0 0 0 0 0 0 0 0 -0 -0 -0 -0 0 -0 0 -0 -0 0 0 0 0 0 0 0 0 0 0 0 0 0 0 0 0 0 0 0 0 0 0 0
0 0 0 0 0 0 0 0 0 0 0 0 0 -0 -0 0 0 0 -0 -0 -0 0 0 0 0 0 0 -0 0 0 0 0 0 0 0 0 0 0 0 0 0 0 0
0 0 0 0 0 0 0 0 0 0 0 0 0 -0 -0 -0 -0 0 -0 -0 -0 -0 0 0 0 0 0 0 -0 0 0 0 0 0 0 0 0 0 0 0 0 0 0
0 0 1 1 0 0 0 0 0 0 0 0 0 0 -0 -0 -0 -0 -0 -0 -0 -0 0 0 0 0 0 0 0 0 0 0 0 0 0 0 0 0 0 0 -0 -0 0
0 0 0 0 0 0 0 0 0 0 0 0 0 0 0 0 0 -0 -0 -0 0 -0 0 0 0 0 0 0 0 0 0 0 0 0 0 0 0 0 0 0 0 -0 -0
0 0 0 0 0 0 0 0 0 0 0 0 0 0 0 0 0 0 0 0 -0 0 0 0 0 0 -0 0 0 0 0 0 0 0 -0 0 0 0 0 0 0 0 -0
0 0 0 0 0 0 0 0 0 0 0 0 0 0 0 0 0 0 0 0 0 0 0 -0 -0 -0 -0 0 0 0 0 0 0 0 0 0 0 -0 -0 -0 0 0 0
0 0 0 0 0 0 0 0 0 0 0 0 0 0 0 0 0 0 0 0 0 0 0 0 0 -0 -0 0 -0 0 0 0 0 0 0 0 0 0 0 0 0 0 0
0 0 0 0 0 0 0 0 0 0 0 -0 0 0 0 0 0 0 0 0 0 0 0 0 0 -0 -0 0 0 0 0 0 0 -0 0 0 0 0 0 0 0 0 0
0 0 0 0 0 0 0 0 0 0 0 0 0 0 0 0 0 0 0 0 0 0 0 0 0 0 0 0 -0 -0 0 0 0 0 0 0 0 0 0 0 0 0 0
0 0 0 0 0 0 0 0 0 0 0 0 0 0 0 0 0 0 0 0 0 0 0 0 0 0 0 0 0 0 0 0 0 0 0 0 0 0 -0 0 0 0 0
0 0 0 0 0 0 0 0 0 0 0 0 0 0 0 0 0 0 0 0 0 0 0 0 0 0 0 0 0 0 0 0 0 0 0 0 0 0 0 0 0 0 0
0 0 0 0 0 0 0 0 0 0 0 0 0 0 0 0 0 0 0 0 0 0 0 0 0 0 0 0 0 0 0 0 0 0 0 0 0 0 0 0 0 0 0
0 0 0 0 0 0 0 0 0 0 0 0 0 0 0 0 0 0 0 0 0 0 0 0 0 0 0 0 0 0 0 0 0 0 0 0 0 0 0 0 0 0 0
0 0 0 0 0 0 0 0 0 0 0 0 0 0 0 0 0 0 0 0 0 0 0 0 0 0 0 0 0 0 0 0 0 0 0 0 0 0 0 0 0 0 0
0 0 0 0 0 0 0 0 0 0 0 0 0 0 0 0 0 0 0 0 0 0 0 0 0 0 0 0 0 0 0 0 0 0 0 0 0 0 0 0 0 0 0
0 0 0 0 0 0 0 0 0 0 0 0 0 0 0 0 0 0 0 0 0 0 0 0 0 0 0 0 0 0 0 0 0 0 0 0 0 0 0 0 0 -0 0
0 0 0 0 0 0 0 0 0 0 0 0 0 0 0 0 0 0 0 0 0 0 0 0 0 0 0 0 0 0 0 0 0 0 0 0 0 0 0 0 0 0 0
0 0 0 0 0 0 0 0 0 0 0 0 0 0 0 0 0 0 0 0 0 0 0 0 0 0 0 0 0 0 0 0 0 0 0 0 0 0 0 0 0 0 0
0 0 0 0 0 0 0 0 0 0 0 0 0 0 0 0 0 0 0 0 0 0 0 0 0 0 0 0 0 0 0 0 0 0 0 0 0 0 0 0 0 0 0
0 0 0 0 0 0 0 0 0 0 0 0 0 0 0 0 0 0 0 0 0 0 0 0 0 0 0 0 0 0 0 0 0 0 0 0 0 0 0 0 0 0 0
Wind_Speed_500mb
81 74 61 56 48 39 40 35 26 30 31 28 31 32 30 28 26 23 22 32 36 36 31 25 24 21 15 12 18 13 14 13 9 4 13 7 5 3 3 4 2 10 12
81 77 64 60 51 44 44 43 32 40 30 23 29 23 24 21 15 27 26 23 33 34 30 27 28 19 17 17 14 11 14 13 14 9 8 8 10 10 9 3 2 4 10
78 80 73 63 53 48 49 49 36 31 43 30 28 23 23 23 23 28 25 17 29 28 27 32 27 20 16 22 15 9 14 12 11 10 7 4 6 8 6 10 7 7 8
86 82 79 66 54 50 43 48 42 35 44 33 20 27 22 31 23 21 20 24 32 29 29 36 24 21 19 27 16 12 10 7 7 10 8 11 7 4 6 8 16 9 11
76 88 80 66 57 53 45 47 45 38 49 40 28 23 24 26 26 25 26 24 29 18 23 31 22 17 24 28 17 11 7 4 6 11 12 16 12 9 3 7 7 8 7
26 56 75 69 61 58 47 43 48 45 51 39 31 26 26 24 26 31 31 28 26 21 23 23 23 23 24 26 20 18 11 6 8 16 17 19 12 23 19 18 15 6 10
27 23 75 81 70 66 52 42 49 52 57 46 34 28 32 30 31 25 27 32 28 25 24 22 24 27 26 28 24 24 16 12 7 7 12 13 14 14 7 2 12 12 8
51 27 58 83 77 71 57 46 49 56 61 49 39 31 32 29 37 25 26 27 26 22 23 19 18 23 32 29 30 25 22 22 16 9 9 6 8 7 8 9 9 5 9
29 54 43 64 75 75 64 46 45 55 59 50 43 35 34 21 32 31 30 25 24 23 21 18 16 19 25 27 30 26 23 29 26 20 15 9 5 7 2 5 10 12 13
27 23 45 56 58 61 66 54 44 52 55 50 42 38 29 30 28 30 27 27 17 29 26 30 27 23 25 26 27 27 28 30 34 31 27 24 19 13 10 12 15 17 19
20 30 30 36 50 53 64 65 54 47 52 48 47 43 37 32 34 33 28 30 26 22 20 25 31 29 31 24 22 23 29 29 31 33 33 30 29 29 26 20 20 21 22
21 23 42 42 44 37 47 60 62 53 49 45 43 44 44 39 37 39 35 33 27 27 17 20 23 24 26 23 21 23 30 23 22 23 29 28 26 24 26 31 34 32 33
26 24 28 36 40 46 47 47 61 53 38 38 41 30 39 46 41 40 45 42 35 35 32 28 22 28 24 22 20 21 23 30 24 18 18 20 21 22 20 18 18 25 34
33 32 25 27 33 50 51 49 47 39 48 36 26 37 44 48 45 42 40 46 42 38 38 39 35 33 30 30 29 28 26 23 28 27 23 21 21 18 14 15 19 21 25
42 46 41 31 30 31 40 36 39 40 30 12 24 15 18 41 39 46 43 44 45 46 38 34 40 39 37 37 34 34 34 30 32 29 30 32 31 26 24 30 33 30 32
41 46 53 50 43 35 30 26 31 31 21 9 9 7 10 14 26 33 50 49 47 49 45 44 38 40 42 39 37 37 38 34 33 33 28 28 34 34 34 34 33 37 39
46 43 44 40 49 48 45 42 35 28 24 18 10 13 13 28 20 18 40 41 46 56 59 52 49 49 46 43 41 40 41 42 43 44 40 38 38 36 36 39 42 42 37
51 48 42 42 41 36 34 33 30 27 22 17 13 8 13 20 32 24 25 27 41 49 57 55 55 57 54 53 52 51 50 54 52 48 46 49 51 51 50 50 50 48 48
49 40 33 34 34 31 27 21 20 18 18 19 19 18 14 9 11 12 9 24 30 34 27 37 49 59 55 55 58 56 57 56 57 57 58 59 59 56 55 57 61 63 62
37 32 22 20 22 23 19 15 14 11 13 12 11 11 10 10 9 9 8 6 1 4 8 19 27 31 33 35 45 54 56 53 56 56 58 54 51 54 55 53 52 56 56
41 31 23 17 16 13 12 12 10 7 3 3 5 7 9 9 8 7 7 4 2 1 4 7 9 10 18 27 30 31 30 40 45 49 51 54 59 59 57 55 52 55 57
35 25 19 12 9 4 6 9 10 9 9 10 10 9 8 9 12 14 14 13 13 10 6 5 4 9 10 15 14 16 20 33 37 40 44 46 51 53 55 56 55 61 68
34 21 12 12 7 8 10 12 14 17 18 16 14 13 11 11 10 11 12 14 14 14 11 12 12 12 16 21 26 30 26 24 26 37 42 45 48 51 51 55 56 57 62
31 22 17 13 12 9 11 14 15 15 16 15 13 13 13 14 14 13 12 14 13 17 19 20 22 22 26 33 28 32 32 32 35 40 42 41 41 44 49 53 52 50 50
34 27 22 17 14 14 18 18 15 15 14 13 15 16 16 16 17 18 17 18 17 21 26 25 26 28 34 31 35 36 35 38 38 40 41 43 43 45 43 40 38 38 42
32 28 20 16 15 16 15 13 14 17 18 16 16 17 19 20 19 23 22 21 28 28 30 34 36 34 33 34 33 34 37 39 42 46 44 43 44 44 42 41 41 39 38
Wind_Direction_500mb
168 162 161 162 157 158 168 170 176 185 174 159 158 164 162 160 172 171 187 194 191 180 183 190 191 175 167 166 157 131 115 81 72 106 204 210 236 256 256 54 358 19 25
167 169 168 166 167 171 178 179 178 181 187 163 165 163 164 150 141 164 163 168 189 190 186 194 190 178 176 177 166 127 123 99 91 124 176 186 194 222 257 180 290 332 319
168 171 171 176 177 179 183 185 187 178 184 178 173 175 169 167 171 174 175 171 170 170 179 179 180 177 199 171 160 149 141 134 111 109 143 178 218 179 194 217 261 214 279
174 176 176 178 183 189 197 187 189 190 189 186 190 198 197 184 170 162 170 160 162 172 172 172 183 176 179 167 169 150 124 141 137 111 84 106 143 194 173 144 180 188 157
179 179 180 186 188 192 197 198 194 190 193 192 193 196 190 179 171 167 159 156 177 186 178 182 192 191 178 174 172 167 164 137 91 96 94 106 100 121 186 200 198 188 183
186 189 187 193 190 195 197 197 194 190 192 197 197 199 203 195 185 185 175 173 183 171 192 195 200 198 184 184 199 191 187 189 112 80 99 107 115 142 92 98 97 43 224
237 237 190 190 192 196 199 202 196 191 191 198 199 207 208 214 207 190 172 183 187 184 180 198 210 204 208 216 220 212 199 210 190 122 104 88 109 109 84 152 35 51 72
251 250 189 193 198 201 201 205 197 192 193 199 203 204 193 204 204 200 181 178 179 185 198 196 191 201 212 215 220 223 211 209 221 217 152 120 80 94 53 45 352 336 9
195 205 173 191 197 201 201 204 198 193 195 199 204 205 200 193 188 198 184 187 195 199 207 212 205 210 202 213 214 218 221 215 226 232 224 226 174 128 127 338 333 342 331
204 159 179 171 174 198 204 204 202 195 198 202 200 211 214 199 190 193 204 207 209 213 236 240 229 222 207 214 215 217 221 225 227 238 235 241 248 244 236 253 278 299 301
181 188 168 153 187 203 207 207 198 198 204 206 206 208 219 222 214 216 218 222 228 229 229 233 225 220 205 210 216 223 216 223 213 227 236 241 254 257 261 259 268 267 292
145 180 203 208 207 196 199 205 202 192 200 210 215 214 217 220 230 230 228 230 223 225 220 201 210 206 212 218 240 238 223 223 226 232 241 237 249 261 269 270 261 268 276
116 139 171 191 191 196 184 173 194 191 198 233 215 229 237 226 221 233 233 232 239 239 237 235 226 213 211 214 218 231 228 233 236 234 243 240 256 267 279 276 278 279 280
109 112 128 156 185 194 186 179 182 181 207 231 248 261 223 228 225 229 231 237 239 247 241 238 234 229 231 236 238 240 239 238 240 242 247 254 254 258 273 298 301 302 306
103 103 108 118 136 166 180 177 180 188 211 264 203 242 225 214 230 235 227 230 233 241 243 241 235 236 242 240 244 246 247 248 252 255 258 262 259 260 266 281 285 291 299
116 108 102 103 106 121 133 155 182 196 204 222 230 229 205 180 235 242 246 237 227 231 232 234 237 241 243 243 245 249 254 258 256 262 264 269 266 267 263 265 270 282 291
121 116 108 106 102 99 103 110 120 130 129 143 170 213 219 221 238 245 242 257 244 237 235 229 229 233 233 240 245 248 252 250 255 261 265 267 267 273 275 274 272 270 280
128 120 118 109 104 103 113 114 118 124 125 118 124 155 198 215 241 267 263 274 275 249 242 239 241 241 241 237 240 246 249 247 252 258 261 264 267 270 275 279 276 273 274
128 127 126 126 125 117 119 130 116 114 125 120 115 110 107 132 184 221 246 251 262 259 254 249 248 248 245 247 248 248 247 249 253 258 262 265 269 272 275 277 279 282 282
137 137 139 133 136 147 156 160 143 148 141 133 130 128 137 136 127 132 128 145 48 31 290 259 270 281 276 265 258 248 254 256 257 258 261 265 271 271 272 271 276 279 282
149 153 155 158 144 156 185 198 205 203 191 224 215 209 203 210 231 240 251 261 264 16 56 40 29 328 299 281 278 276 270 270 267 269 268 265 266 267 268 272 275 278 280
158 169 162 157 158 202 255 252 256 264 278 279 274 266 261 260 249 249 256 268 283 296 318 311 356 1 327 316 322 313 289 273 275 281 281 278 276 278 276 274 275 276 279
157 163 176 171 194 260 276 281 293 304 301 295 286 274 266 259 269 276 264 255 257 269 269 291 296 302 307 315 317 309 306 302 292 286 290 292 289 287 288 287 287 284 283
161 173 191 218 243 274 302 306 311 307 306 305 299 288 272 263 264 266 279 283 274 269 270 273 279 281 292 300 309 309 311 300 288 286 286 291 292 292 293 295 296 295 285
169 185 202 221 248 280 297 305 310 315 318 318 311 304 305 296 283 280 282 277 265 276 282 284 293 300 289 294 303 303 306 307 304 298 294 290 291 290 291 293 298 299 294
187 197 206 233 251 274 287 313 329 329 327 328 326 318 309 304 306 301 288 268 279 277 266 267 274 275 281 286 292 291 293 298 297 298 305 306 303 298 293 293 292 296 302
Wind_Speed_850mb
81 74 61 56 48 39 40 35 26 30 31 28 31 32 30 28 26 23 22 32 36 36 31 25 24 21 15 12 18 13 14 13 9 4 13 7 5 3 3 4 2 10 12
81 77 64 60 51 44 44 43 32 40 30 23 29 23 24 21 15 27 26 23 33 34 30 27 28 19 17 17 14 11 14 13 14 9 8 8 10 10 9 3 2 4 10
78 80 73 63 53 48 49 49 36 31 43 30 28 23 23 23 23 28 25 17 29 28 27 32 27 20 16 22 15 9 14 12 11 10 7 4 6 8 6 10 7 7 8
86 82 79 66 54 50 43 48 42 35 44 33 20 27 22 31 23 21 20 24 32 29 29 36 24 21 19 27 16 12 10 7 7 10 8 11 7 4 6 8 16 9 11
76 88 80 66 57 53 45 47 45 38 49 40 28 23 24 26 26 25 26 24 29 18 23 31 22 17 24 28 17 11 7 4 6 11 12 16 12 9 3 7 7 8 7
26 56 75 69 61 58 47 43 48 45 51 39 31 26 26 24 26 31 31 28 26 21 23 23 23 23 24 26 20 18 11 6 8 16 17 19 12 23 19 18 15 6 10
27 23 75 81 70 66 52 42 49 52 57 46 34 28 32 30 31 25 27 32 28 25 24 22 24 27 26 28 24 24 16 12 7 7 12 13 14 14 7 2 12 12 8
51 27 58 83 77 71 57 46 49 56 61 49 39 31 32 29 37 25 26 27 26 22 23 19 18 23 32 29 30 25 22 22 16 9 9 6 8 7 8 9 9 5 9
29 54 43 64 75 75 64 46 45 55 59 50 43 35 34 21 32 31 30 25 24 23 21 18 16 19 25 27 30 26 23 29 26 20 15 9 5 7 2 5 10 12 13
27 23 45 56 58 61 66 54 44 52 55 50 42 38 29 30 28 30 27 27 17 29 26 30 27 23 25 26 27 27 28 30 34 31 27 24 19 13 10 12 15 17 19
20 30 30 36 50 53 64 65 54 47 52 48 47 43 37 32 34 33 28 30 26 22 20 25 31 29 31 24 22 23 29 29 31 33 33 30 29 29 26 20 20 21 22
21 23 42 42 44 37 47 60 62 53 49 45 43 44 44 39 37 39 35 33 27 27 17 20 23 24 26 23 21 23 30 23 22 23 29 28 26 24 26 31 34 32 33
26 24 28 36 40 46 47 47 61 53 38 38 41 30 39 46 41 40 45 42 35 35 32 28 22 28 24 22 20 21 23 30 24 18 18 20 21 22 20 18 18 25 34
33 32 25 27 33 50 51 49 47 39 48 36 26 37 44 48 45 42 40 46 42 38 38 39 35 33 30 30 29 28 26 23 28 27 23 21 21 18 14 15 19 21 25
42 46 41 31 30 31 40 36 39 40 30 12 24 15 18 41 39 46 43 44 45 46 38 34 40 39 37 37 34 34 34 30 32 29 30 32 31 26 24 30 33 30 32
41 46 53 50 43 35 30 26 31 31 21 9 9 7 10 14 26 33 50 49 47 49 45 44 38 40 42 39 37 37 38 34 33 33 28 28 34 34 34 34 33 37 39
46 43 44 40 49 48 45 42 35 28 24 18 10 13 13 28 20 18 40 41 46 56 59 52 49 49 46 43 41 40 41 42 43 44 40 38 38 36 36 39 42 42 37
51 48 42 42 41 36 34 33 30 27 22 17 13 8 13 20 32 24 25 27 41 49 57 55 55 57 54 53 52 51 50 54 52 48 46 49 51 51 50 50 50 48 48
49 40 33 34 34 31 27 21 20 18 18 19 19 18 14 9 11 12 9 24 30 34 27 37 49 59 55 55 58 56 57 56 57 57 58 59 59 56 55 57 61 63 62
37 32 22 20 22 23 19 15 14 11 13 12 11 11 10 10 9 9 8 6 1 4 8 19 27 31 33 35 45 54 56 53 56 56 58 54 51 54 55 53 52 56 56
41 31 23 17 16 13 12 12 10 7 3 3 5 7 9 9 8 7 7 4 2 1 4 7 9 10 18 27 30 31 30 40 45 49 51 54 59 59 57 55 52 55 57
35 25 19 12 9 4 6 9 10 9 9 10 10 9 8 9 12 14 14 13 13 10 6 5 4 9 10 15 14 16 20 33 37 40 44 46 51 53 55 56 55 61 68
34 21 12 12 7 8 10 12 14 17 18 16 14 13 11 11 10 11 12 14 14 14 11 12 12 12 16 21 26 30 26 24 26 37 42 45 48 51 51 55 56 57 62
31 22 17 13 12 9 11 14 15 15 16 15 13 13 13 14 14 13 12 14 13 17 19 20 22 22 26 33 28 32 32 32 35 40 42 41 41 44 49 53 52 50 50
34 27 22 17 14 14 18 18 15 15 14 13 15 16 16 16 17 18 17 18 17 21 26 25 26 28 34 31 35 36 35 38 38 40 41 43 43 45 43 40 38 38 42
32 28 20 16 15 16 15 13 14 17 18 16 16 17 19 20 19 23 22 21 28 28 30 34 36 34 33 34 33 34 37 39 42 46 44 43 44 44 42 41 41 39 38
Wind_Direction_850mb
168 162 161 162 157 158 168 170 176 185 174 159 158 164 162 160 172 171 187 194 191 180 183 190 191 175 167 166 157 131 115 81 72 106 204 210 236 256 256 54 358 19 25
167 169 168 166 167 171 178 179 178 181 187 163 165 163 164 150 141 164 163 168 189 190 186 194 190 178 176 177 166 127 123 99 91 124 176 186 194 222 257 180 290 332 319
168 171 171 176 177 179 183 185 187 178 184 178 173 175 169 167 171 174 175 171 170 170 179 179 180 177 199 171 160 149 141 134 111 109 143 178 218 179 194 217 261 214 279
174 176 176 178 183 189 197 187 189 190 189 186 190 198 197 184 170 162 170 160 162 172 172 172 183 176 179 167 169 150 124 141 137 111 84 106 143 194 173 144 180 188 157
179 179 180 186 188 192 197 198 194 190 193 192 193 196 190 179 171 167 159 156 177 186 178 182 192 191 178 174 172 167 164 137 91 96 94 106 100 121 186 200 198 188 183
186 189 187 193 190 195 197 197 194 190 192 197 197 199 203 195 185 185 175 173 183 171 192 195 200 198 184 184 199 191 187 189 112 80 99 107 115 142 92 98 97 43 224
237 237 190 190 192 196 199 202 196 191 191 198 199 207 208 214 207 190 172 183 187 184 180 198 210 204 208 216 220 212 199 210 190 122 104 88 109 109 84 152 35 51 72
251 250 189 193 198 201 201 205 197 192 193 199 203 204 193 204 204 200 181 178 179 185 198 196 191 201 212 215 220 223 211 209 221 217 152 120 80 94 53 45 352 336 9
195 205 173 191 197 201 201 204 198 193 195 199 204 205 200 193 188 198 184 187 195 199 207 212 205 210 202 213 214 218 221 215 226 232 224 226 174 128 127 338 333 342 331
204 159 179 171 174 198 204 204 202 195 198 202 200 211 214 199 190 193 204 207 209 213 236 240 229 222 207 214 215 217 221 225 227 238 235 241 248 244 236 253 278 299 301
181 188 168 153 187 203 207 207 198 198 204 206 206 208 219 222 214 216 218 222 228 229 229 233 225 220 205 210 216 223 216 223 213 227 236 241 254 257 261 259 268 267 292
145 180 203 208 207 196 199 205 202 192 200 210 215 214 217 220 230 230 228 230 223 225 220 201 210 206 212 218 240 238 223 223 226 232 241 237 249 261 269 270 261 268 276
116 139 171 191 191 196 184 173 194 191 198 233 215 229 237 226 221 233 233 232 239 239 237 235 226 213 211 214 218 231 228 233 236 234 243 240 256 267 279 276 278 279 280
109 112 128 156 185 194 186 179 182 181 207 231 248 261 223 228 225 229 231 237 239 247 241 238 234 229 231 236 238 240 239 238 240 242 247 254 254 258 273 298 301 302 306
103 103 108 118 136 166 180 177 180 188 211 264 203 242 225 214 230 235 227 230 233 241 243 241 235 236 242 240 244 246 247 248 252 255 258 262 259 260 266 281 285 291 299
116 108 102 103 106 121 133 155 182 196 204 222 230 229 205 180 235 242 246 237 227 231 232 234 237 241 243 243 245 249 254 258 256 262 264 269 266 267 263 265 270 282 291
121 116 108 106 102 99 103 110 120 130 129 143 170 213 219 221 238 245 242 257 244 237 235 229 229 233 233 240 245 248 252 250 255 261 265 267 267 273 275 274 272 270 280
128 120 118 109 104 103 113 114 118 124 125 118 124 155 198 215 241 267 263 274 275 249 242 239 241 241 241 237 240 246 249 247 252 258 261 264 267 270 275 279 276 273 274
128 127 126 126 125 117 119 130 116 114 125 120 115 110 107 132 184 221 246 251 262 259 254 249 248 248 245 247 248 248 247 249 253 258 262 265 269 272 275 277 279 282 282
137 137 139 133 136 147 156 160 143 148 141 133 130 128 137 136 127 132 128 145 48 31 290 259 270 281 276 265 258 248 254 256 257 258 261 265 271 271 272 271 276 279 282
149 153 155 158 144 156 185 198 205 203 191 224 215 209 203 210 231 240 251 261 264 16 56 40 29 328 299 281 278 276 270 270 267 269 268 265 266 267 268 272 275 278 280
158 169 162 157 158 202 255 252 256 264 278 279 274 266 261 260 249 249 256 268 283 296 318 311 356 1 327 316 322 313 289 273 275 281 281 278 276 278 276 274 275 276 279
157 163 176 171 194 260 276 281 293 304 301 295 286 274 266 259 269 276 264 255 257 269 269 291 296 302 307 315 317 309 306 302 292 286 290 292 289 287 288 287 287 284 283
161 173 191 218 243 274 302 306 311 307 306 305 299 288 272 263 264 266 279 283 274 269 270 273 279 281 292 300 309 309 311 300 288 286 286 291 292 292 293 295 296 295 285
169 185 202 221 248 280 297 305 310 315 318 318 311 304 305 296 283 280 282 277 265 276 282 284 293 300 289 294 303 303 306 307 304 298 294 290 291 290 291 293 298 299 294
187 197 206 233 251 274 287 313 329 329 327 328 326 318 309 304 306 301 288 268 279 277 266 267 274 275 281 286 292 291 293 298 297 298 305 306 303 298 293 293 292 296 302